User: anonymous   Login
Location: Unspecified
(0.0000°N, 0.0000°E)
Time: 14:46:22
(UTC+01:00)
Language:

deb Ariane - Orbit

View from above orbital plane
View from above orbital plane
View from above satellite
View from above satellite

Ground track
Ground track

The orbit data is extracted from the following two-line orbital elements,

1 25668U 92060E   14330.12609090  .01255809 -20425-6  78614-3 0  7562
2 25668 007.4891 023.6028 4781905 280.3553 039.3317 06.22836058255298
Epoch (UTC): 26 November 2014 03:01:34
Eccentricity: 0.4781905
inclination: 7.4891°
perigee height: 133 km
apogee height: 12067 km
right ascension of ascending node: 23.6028°
argument of perigee: 280.3553°
revolutions per day: 6.22836058
mean anomaly at epoch: 39.3317°
orbit number at epoch: 25529

The dashed part of the orbit path shows where the satellite is in the earth's shadow,  

DLR